Tekamah, NE

7:49 AM CST on January 21, 2018 (GMT -0600)
Tekamah

Weather History for KTQE - February, 2014

Change the Weather History Date:

Wednesday, February 26, 2014

  Actual Average Record
Temperature  
Mean Temperature 12 °F -  
Max Temperature 32 °F 43 °F 66 °F (1976)
Min Temperature -9 °F 23 °F -9 °F (2014)
Degree Days  
Heating Degree Days 54    
Moisture  
Dew Point 3 °F    
Average Humidity 65    
Maximum Humidity 76    
Minimum Humidity 52    
Precipitation  
Precipitation 0.00 in - - ()
Sea Level Pressure  
Sea Level Pressure 30.19 in    
Wind  
Wind Speed 11 mph (West)    
Max Wind Speed 22 mph    
Max Gust Speed 29 mph    
Visibility 10 miles    
Events      
Averages and records for this station are not official NWS values.
T = Trace of Precipitation, MM = Missing Value Source: NWS Daily Summary

Daily Weather History Graph

Daily Weather History Graph

Search for Another Location

Airport or City:

Trip Planner

Search our weather history database for the weather conditions in past years. The results will help you decide how hot, cold, wet, or windy it might be!

Date:

Astronomy

Feb. 26, 2014 Rise Set
Actual Time 7:04 AM CST 6:11 PM CST
Civil Twilight 6:36 AM CST 6:39 PM CST
Nautical Twilight 6:03 AM CST 7:11 PM CST
Astronomical Twilight 5:31 AM CST 7:44 PM CST
Moon 4:53 AM CST (2/26) 3:25 PM CST (2/26)
Length of Visible Light 12h 03m
Length of Day
11h 07m
Waning Crescent, 10% of the Moon is Illuminated
Feb 26
Waning Crescent
Mar 1
New
Mar 8
First Quarter
Mar 16
Full
Mar 23
Last Quarter

Hourly Weather History & Observations

Time (CST) Temp. Windchill Dew Point Humidity Pressure Visibility Wind Dir Wind Speed Gust Speed Precip Events Conditions
12:54 AM -2.0 °F -16.6 °F -9.0 °F 72% 30.55 in 10.0 mi West 8.1 mph - N/A   Clear
1:54 AM -4.0 °F -17.8 °F -9.9 °F 76% 30.53 in 10.0 mi West 6.9 mph - N/A   Clear
2:54 AM -4.0 °F -21.2 °F -11.0 °F 72% 30.50 in 10.0 mi West 10.4 mph - N/A   Clear
3:54 AM -5.1 °F -23.5 °F -11.0 °F 76% 30.46 in 10.0 mi West 11.5 mph - N/A   Clear
4:54 AM -2.9 °F -18.8 °F -9.9 °F 72% 30.43 in 10.0 mi WNW 9.2 mph - N/A   Clear
5:54 AM -7.1 °F -22.8 °F -13.0 °F 75% 30.40 in 10.0 mi West 8.1 mph - N/A   Clear
6:54 AM -9.0 °F -22.3 °F -16.1 °F 71% 30.38 in 10.0 mi SSW 5.8 mph - N/A   Clear
7:54 AM -5.1 °F -20.4 °F -11.0 °F 76% 30.35 in 10.0 mi South 8.1 mph - N/A   Clear
8:54 AM 1.0 °F -12.9 °F -5.1 °F 75% 30.33 in 10.0 mi SSW 8.1 mph - N/A   Clear
9:54 AM 9.0 °F -3.2 °F 1.9 °F 73% 30.27 in 10.0 mi SW 8.1 mph - N/A   Clear
10:54 AM 14.0 °F -0.2 °F 3.9 °F 64% 30.23 in 10.0 mi SW 12.7 mph - N/A   Clear
11:54 AM 19.0 °F 3.6 °F 7.0 °F 59% 30.17 in 10.0 mi SW 18.4 mph - N/A   Clear
12:54 PM 23.0 °F 8.3 °F 10.9 °F 60% 30.10 in 10.0 mi SW 19.6 mph - N/A   Clear
1:54 PM 28.0 °F 14.3 °F 14.0 °F 56% 30.03 in 10.0 mi WSW 21.9 mph 28.8 mph N/A   Clear
2:54 PM 30.0 °F 16.9 °F 15.1 °F 54% 30.00 in 10.0 mi West 21.9 mph - N/A   Clear
3:54 PM 30.9 °F 18.4 °F 16.0 °F 54% 29.96 in 10.0 mi WSW 20.7 mph 25.3 mph N/A   Clear
4:54 PM 32.0 °F 20.5 °F 16.0 °F 52% 29.94 in 10.0 mi WSW 18.4 mph - N/A   Clear
5:54 PM 28.9 °F 18.6 °F 17.1 °F 61% 29.93 in 10.0 mi West 12.7 mph - N/A   Clear
6:54 PM 28.0 °F 17.0 °F 12.9 °F 53% 29.95 in 10.0 mi West 13.8 mph - N/A   Clear
7:54 PM 21.9 °F 12.5 °F 10.9 °F 63% 29.97 in 10.0 mi WNW 8.1 mph - N/A   Clear
8:54 PM 26.1 °F 14.5 °F 12.0 °F 55% 29.98 in 10.0 mi NW 13.8 mph - N/A   Clear
9:54 PM 25.0 °F 12.6 °F 12.0 °F 58% 30.00 in 10.0 mi NW 15.0 mph - N/A   Clear
10:54 PM 19.9 °F 7.3 °F 10.0 °F 65% 30.04 in 10.0 mi NNW 12.7 mph - N/A   Clear
11:54 PM 18.0 °F 3.1 °F 5.0 °F 57% 30.05 in 10.0 mi NNW 16.1 mph - N/A   Clear